Regional Weather Roundup
Issued by NWS Sioux Falls, SD

Home | Current Version | Previous Version | Text Only | Print | Product List | Glossary On
Versions: 1 2 3 4 5 6 7 8 9 10 11 12 13 14 15 16 17 18 19 20 21 22 23 24 25 26 27 28 29 30 31 32 33 34 35 36 37 38 39 40 41 42 43 44 45 46 47 48 49 50
000
ASUS43 KFSD 061202
RWRFSD

WEATHER ROUNDUP FOR SE SOUTH DAKOTA/SW MINNESOTA/NW IOWA
NATIONAL WEATHER SERVICE SIOUX FALLS SD
700 AM CDT WED MAY 06 2015

NOTE: "FAIR" INDICATES FEW OR NO CLOUDS BELOW 12,000 FEET WITH NO
SIGNIFICANT WEATHER AND OR OBSTRUCTIONS TO VISIBILITY.


SDZ038>040-050-052>070-061300-
SOUTHEAST SOUTH DAKOTA

CITY           SKY/WX    TMP DP  RH WIND       PRES   REMARKS
BROOKINGS      CLOUDY    61  59  94 SE17      29.92S
CHAMBERLAIN    NOT AVBL
HURON          CLOUDY    62  59  90 SE13      29.83F
6HR MIN TEMP:  60; 6HR MAX TEMP:  62; 6HR PCP: TRACE;

MADISON        CLOUDY    59  59 100 SE15G21   29.90S
MITCHELL       CLOUDY    63  59  87 SE14      29.85S
6HR MIN TEMP:  62; 6HR MAX TEMP:  64; 6HR PCP:  0.01;

SIOUX FALLS    LGT RAIN  63  59  87 SE15      29.90S
6HR MIN TEMP:  62; 6HR MAX TEMP:  63; 6HR PCP:  0.01;

WINNER         CLOUDY    61  56  83 SE16      29.76F
YANKTON        CLOUDY    63  57  82 E9        29.85S
$$

MNZ071-072-080-081-089-090-097-098-061300-
SOUTHWEST MINNESOTA

CITY           SKY/WX    TMP DP  RH WIND       PRES   REMARKS
FAIRMONT       CLOUDY    59  54  82 SE10      30.00S
JACKSON        LGT RAIN  61  59  94 SE9       30.00S VSB 1/4
LUVERNE        CLOUDY    63  59  88 SE12      29.93S FOG
MARSHALL       CLOUDY    57  54  88 SE14      29.96S
6HR MIN TEMP:  55; 6HR MAX TEMP:  57;

MONTEVIDEO     FOG       55  55 100 S15       29.98S VSB 1
REDWOOD FALLS  FOG       57  56  96 SE12      30.00S VSB 1/2
TRACY          CLOUDY    60  59  98 SE12      29.97S FOG
WORTHINGTON    CLOUDY    61  57  88 SE13      29.96F
$$

IAZ001>003-012>014-020>022-031-032-NEZ013-014-SDZ071-061300-
NORTHWEST IOWA

CITY           SKY/WX    TMP DP  RH WIND       PRES   REMARKS
DENISON        MOCLDY    61  61 100 SE9       29.92R
ESTHERVILLE    CLOUDY    59  59 100 SE9       29.99R FOG
SIOUX CITY     CLOUDY    63  58  83 SE12      29.89S
6HR MIN TEMP:  63; 6HR MAX TEMP:  67; 6HR PCP: TRACE;

SPENCER        CLOUDY    62  61  96 E13       29.97S FOG
6HR MIN TEMP:  61; 6HR MAX TEMP:  63; 6HR PCP:  0.03;

$$

ABBREVIATIONS USED IN REMARKS
   TC - TEMPERATURE IN CELSIUS
  WCI - WIND CHILL INDEX
   HX - HEAT INDEX
  VSB - VISIBILITY




USA.gov is the U.S. government's official web portal to all federal, state and local government web resources and services.